TimeEST,TemperatureF,Dew PointF,Humidity,Sea Level PressureIn,VisibilityMPH,Wind Direction,Wind SpeedMPH,Gust SpeedMPH,PrecipitationIn,Events,Conditions,WindDirDegrees,DateUTC
12:53 AM,69.1,62.1,78,30.26,10.0,ESE,3.5,-,N/A,,Partly Cloudy,120,2013-01-11 05:53:00
1:53 AM,69.1,63.0,81,30.26,10.0,ESE,4.6,-,N/A,,Partly Cloudy,120,2013-01-11 06:53:00
2:53 AM,69.1,64.0,84,30.26,10.0,Variable,4.6,-,N/A,,Clear,0,2013-01-11 07:53:00
3:53 AM,66.9,63.0,87,30.23,10.0,SE,6.9,-,N/A,,Clear,140,2013-01-11 08:53:00
4:53 AM,66.9,64.0,90,30.22,10.0,Calm,Calm,-,N/A,,Partly Cloudy,0,2013-01-11 09:53:00
5:53 AM,66.0,63.0,90,30.22,10.0,Calm,Calm,-,N/A,,Scattered Clouds,0,2013-01-11 10:53:00
6:53 AM,66.9,63.0,87,30.22,10.0,East,3.5,-,N/A,,Scattered Clouds,100,2013-01-11 11:53:00
7:53 AM,69.1,64.0,84,30.24,10.0,Calm,Calm,-,N/A,,Mostly Cloudy,0,2013-01-11 12:53:00
8:53 AM,73.0,64.0,73,30.25,10.0,ESE,4.6,-,N/A,,Mostly Cloudy,110,2013-01-11 13:53:00
9:53 AM,75.9,63.0,64,30.26,10.0,SE,8.1,-,N/A,,Mostly Cloudy,140,2013-01-11 14:53:00
10:53 AM,77.0,66.0,69,30.25,10.0,ESE,10.4,-,N/A,,Mostly Cloudy,120,2013-01-11 15:53:00
11:53 AM,80.1,61.0,52,30.22,10.0,Variable,5.8,-,N/A,,Mostly Cloudy,0,2013-01-11 16:53:00
12:53 PM,80.1,61.0,52,30.19,10.0,SE,10.4,-,N/A,,Scattered Clouds,140,2013-01-11 17:53:00
1:53 PM,81.0,61.0,50,30.17,10.0,SE,10.4,-,N/A,,Scattered Clouds,140,2013-01-11 18:53:00
2:53 PM,82.0,60.1,47,30.16,10.0,SE,6.9,-,N/A,,Clear,140,2013-01-11 19:53:00
3:53 PM,82.9,59.0,44,30.15,10.0,SE,6.9,-,N/A,,Scattered Clouds,130,2013-01-11 20:53:00
4:53 PM,82.0,59.0,45,30.14,10.0,Variable,4.6,-,N/A,,Scattered Clouds,0,2013-01-11 21:53:00
5:53 PM,80.1,61.0,52,30.15,10.0,SE,4.6,-,N/A,,Scattered Clouds,140,2013-01-11 22:53:00
6:53 PM,73.9,63.0,68,30.17,10.0,WSW,3.5,-,N/A,,Mostly Cloudy,250,2013-01-11 23:53:00
7:53 PM,75.0,64.0,69,30.18,10.0,Variable,3.5,-,N/A,,Scattered Clouds,0,2013-01-12 00:53:00
8:53 PM,73.0,64.9,76,30.18,10.0,East,4.6,-,N/A,,Scattered Clouds,100,2013-01-12 01:53:00
9:53 PM,73.0,64.9,76,30.19,10.0,ESE,4.6,-,N/A,,Mostly Cloudy,110,2013-01-12 02:53:00
10:53 PM,72.0,64.0,76,30.19,10.0,ESE,8.1,-,N/A,,Partly Cloudy,110,2013-01-12 03:53:00
11:53 PM,71.1,64.0,78,30.20,10.0,Variable,4.6,-,N/A,,Scattered Clouds,0,2013-01-12 04:53:00